Погода в Шаргороде

Украина / Винницкая область     48°45′11″N   28°04′56″E
темп.,
°C
ветер,
м/с
пор.,
м/с
влажн.,
%
обл.,
%
осадки,
мм/ч
давл.,
гПа
погр.,
м
17 апреля, сб
сб1700:00+4зсз6137840 0.0 1017920
03:00+3з61486100 0.0 1018742
06:00+2з51093100 0.0 1018561
09:00+3з4896100 0.0 1019586
12:00+4з4694100 0.1 1020580
15:00+5зсз348998 0.1 1020501
18:00+7сз227779 0.0 1020652
21:00+6с227785 0.0 102166
18 апреля, вс
вс1800:00+5ссз228211 0.0 102038
03:00+3с229236 0.0 102031
06:00+2з11926 0.0 101910
09:00+6ссз2276100 0.0 1019372
12:00+11ссз225886 0.0 1018903
15:00+13ссв1146100 0.0 10171436
18:00+13св3248100 0.0 10161437
21:00+8всв5882100 0.0 1018245
19 апреля, пн
пн1900:00+7всв3686100 0.0 1018182
03:00+6всв2389100 0.0 101756
06:00+6всв3582100 0.0 1017124
09:00+7всв3572100 0.0 1017318
12:00+12всв345280 0.0 10151269
15:00+13всв334481 0.0 10141855
18:00+12св565494 0.1 10121257
21:00+8св51070100 0.1 1013388
20 апреля, вт
вт2000:00+6св41073100 0.0 1011292
03:00+5ссв4977100 0.0 1009246
06:00+5ссв51186100 0.0 1007391
09:00+7с71277100 0.0 1006729
12:00+10с91158100 0.0 10041496
15:00+9ссз81164100 0.1 10051489
18:00+9сз71263100 0.0 10051556
21:00+7зсз497196 0.0 1007401
21 апреля, ср
ср2100:00+6з5108143 0.1 1008362
03:00+4з389314 0.1 1009150
06:00+3зюз38945 0.0 1010155
09:00+8зюз587193 0.0 1011545
12:00+13юз575356 0.4 10111670
15:00+13з785188 1.0 10111578
18:00+9ссз56815 0.7 1013329
21:00+8зюз11835 0.8 101510